Location: Colonia Mina de C?rbuni
(46.1667°N, 22.7167°E)
Time: 14:28:00
(UTC+00:00)

Courier 1B - Pass Details

Date: 22 April 2024
Orbit: 962 x 1208 km, 28.3° (Epoch: 23 May)

Event Time Altitude Azimuth Distance (km) Brightness Sun altitude
Rises 02:47:46 0° 245° (WSW) 3,922 - -7.6°
Exits shadow 02:50:46 - 232° (SW) 3,145 9.5 -7.1°
Reaches altitude 10° 02:51:53 10° 225° (SW) 2,908 9.4 -6.9°
Maximum altitude 02:55:43 15° 192° (SSW) 2,480 9.3 -6.3°
Drops below altitude 10° 02:59:27 10° 158° (SSE) 2,808 9.9 -5.7°
Sets 03:03:19 0° 137° (SE) 3,713 10.8 -5.1°
